Location: Andershausen
(51.8462°N, 9.8595°E)
Time: 00:16:28
(UTC+00:00)

Resurs 01 Rocket - Pass Details

Date: 18 November 2025
Orbit: 627 x 636 km, 97.7° (Epoch: 04 December)

Event Time Altitude Azimuth Distance (km) Brightness Sun altitude
Exits shadow 19:07:32 20° 318° (NW) 1,465 3.9 -33.8°
Drops below altitude 10° 19:09:12 10° 331° (NNW) 2,036 4.6 -34.1°
Sets 19:11:34 0° 340° (NNW) 2,948 5.4 -34.4°
